Location: Unspecified
(0.0000°N, 0.0000°E)
Time: 07:17:18
(UTC+00:00)

Amsat-Oscar-6 - Pass Details

Date: 04 May 2019
Orbit: 1448 x 1455 km, 101.8° (Epoch: 20 May)

Event Time Altitude Azimuth Distance (km) Brightness Sun altitude
Rises 04:54:29 0° 338° (NNW) 4,535 ? -15.0°
Reaches altitude 10° 04:59:12 10° 314° (NW) 3,561 ? -13.9°
Maximum altitude 05:02:46 13° 288° (WNW) 3,301 ? -13.0°
Enters shadow 05:04:28 13° 275° (W) 3,365 ? -12.6°
